Temperature
32 32 31 31 32 32 32 32 32 33 35 34 33 33 33 33 32 32 31 30 29 28 27 26 25 24 23 22 21 21 21 20 20 20 20 20 19 19 19 19 19 19 19 19
32 31 32 33 34 34 33 33 32 34 35 34 33 33 33 33 33 32 31 30 29 28 27 26 25 24 23 22 21 21 21 20 20 20 20 20 20 19 19 19 19 19 19 19
31 33 34 34 33 33 33 33 33 33 34 34 32 31 32 33 33 32 32 31 30 28 27 26 25 24 23 22 22 21 21 20 20 20 20 20 19 19 19 19 19 19 19 19
32 34 34 33 33 33 32 34 34 34 32 31 32 30 30 32 32 32 32 31 30 29 27 26 25 24 23 22 22 21 21 20 20 20 20 20 20 19 19 19 19 19 19 19
32 33 33 33 34 34 33 35 34 34 32 31 32 30 30 31 31 32 32 32 30 29 28 27 26 25 24 23 22 21 21 21 20 20 20 20 20 20 20 19 19 19 19 19
33 34 34 34 34 34 34 34 33 32 31 30 31 30 30 31 31 32 33 32 30 29 28 27 26 25 24 23 22 21 21 21 20 20 20 20 20 20 19 19 19 19 19 19
32 33 34 34 33 34 34 32 30 30 29 30 31 31 31 33 33 33 33 32 31 29 28 27 26 24 24 23 22 22 21 21 21 20 20 20 20 20 19 19 19 19 19 19
30 31 33 33 33 33 33 32 30 29 30 30 30 30 32 33 34 33 33 32 31 29 28 27 26 25 24 23 23 22 21 21 21 20 20 20 20 20 19 19 19 19 19 19
31 31 33 33 34 33 32 32 32 31 31 30 29 30 31 33 33 33 32 32 30 29 28 27 26 25 24 23 23 22 22 21 21 21 20 20 20 20 19 19 19 19 19 19
32 31 32 33 34 34 34 33 32 31 29 29 29 29 30 31 32 32 32 31 30 29 28 27 26 25 24 24 23 22 21 21 21 20 20 20 20 20 19 19 19 19 19 19
33 32 32 32 32 32 32 32 32 31 31 30 29 29 31 31 32 31 31 31 30 29 28 27 26 26 25 24 23 22 21 21 21 20 20 20 20 20 19 19 19 19 19 19
33 32 31 32 33 34 33 33 32 30 30 31 30 29 32 32 32 31 30 29 29 28 28 27 26 25 24 24 23 22 21 21 21 20 20 20 19 19 19 19 19 19 19 19
32 31 30 30 32 32 32 32 32 32 31 31 30 29 31 31 31 30 30 29 28 27 27 26 25 25 24 23 23 22 21 21 20 20 20 19 19 19 19 19 19 19 19 18
31 31 30 30 30 31 31 32 32 32 31 30 30 29 29 30 30 29 28 28 27 26 26 25 25 24 23 23 22 22 21 21 20 20 19 19 19 19 19 19 19 19 18 18
32 30 30 31 32 32 32 32 32 32 31 31 30 29 29 29 30 29 28 28 27 26 25 25 24 23 22 22 22 21 21 21 20 20 19 19 19 19 19 18 18 18 18 18
31 30 30 30 31 31 31 32 32 32 32 32 31 30 30 29 29 29 28 27 26 25 25 24 24 23 22 22 21 21 21 20 20 20 19 19 19 19 18 18 18 18 18 17
30 30 29 29 30 30 30 31 31 31 32 31 30 30 30 29 28 28 28 27 26 25 25 24 24 23 22 21 21 20 20 20 20 19 19 19 19 18 18 18 18 18 17 17
30 29 29 29 29 28 29 32 32 31 31 31 30 30 30 29 28 27 27 26 26 25 24 24 23 22 22 21 21 21 20 20 20 19 19 19 18 18 18 18 18 17 17 17
30 28 28 28 27 28 29 30 31 30 29 30 30 30 29 28 28 26 26 25 25 24 24 23 23 22 22 21 20 20 20 19 19 19 19 18 18 18 18 17 17 17 17 17
29 28 27 27 27 26 28 30 30 30 28 29 29 28 28 28 27 26 25 25 24 23 23 22 22 22 21 21 20 20 19 19 19 18 18 18 18 18 18 17 17 17 17 16
28 27 27 27 26 27 29 29 30 27 27 28 28 27 27 26 25 24 24 24 23 23 22 22 21 21 20 20 20 19 19 18 18 18 18 18 18 18 17 17 17 16 16 16
27 27 26 27 26 26 28 29 27 26 26 27 26 26 26 25 24 23 23 22 22 22 21 21 21 20 20 19 19 19 18 18 18 18 17 17 17 17 17 17 16 16 16 16
27 27 27 27 26 26 26 26 26 26 25 25 25 25 25 24 24 23 22 21 21 20 20 20 20 19 19 19 19 18 18 18 17 17 17 17 16 16 16 16 16 16 16 16
26 26 26 25 26 26 26 25 25 25 24 25 24 24 24 23 23 22 21 20 20 19 19 19 19 18 18 18 18 18 17 17 17 16 16 16 16 16 16 16 16 16 16 15
24 25 25 24 25 25 25 24 24 24 24 24 23 23 23 22 22 21 20 19 19 19 18 18 18 17 17 17 17 17 17 17 16 16 16 16 16 16 16 16 16 15 15 15
24 23 24 24 24 24 24 23 23 23 23 23 23 22 22 21 21 20 19 19 18 18 18 17 17 17 17 17 17 17 17 16 16 15 15 15 15 15 15 15 15 15 15 15
Wind_Speed
12 11 11 11 12 12 9 7 4 4 6 5 5 5 7 9 9 8 9 10 11 11 12 12 11 12 12 11 9 8 7 7 5 4 4 3 3 3 3 3 4 4 3 2
11 15 14 12 11 11 8 7 6 6 5 4 2 4 6 7 8 10 10 11 12 12 13 12 12 11 12 11 10 9 8 7 6 5 3 3 4 3 3 2 3 3 3 2
16 13 10 11 10 9 10 9 9 6 4 4 4 5 5 9 8 8 10 10 11 13 14 13 12 11 12 12 11 9 8 7 7 7 5 4 3 2 2 3 3 2 2 2
16 14 11 11 11 9 11 10 9 8 6 6 6 5 6 7 9 9 9 11 12 12 14 14 13 12 12 13 12 10 9 8 7 7 6 6 5 4 3 3 3 3 3 2
13 13 12 12 11 10 11 9 8 8 7 8 8 6 7 8 8 11 12 12 12 13 14 14 13 12 12 13 13 11 10 8 7 6 6 5 4 4 3 3 4 3 3 3
15 14 13 11 12 11 9 9 8 8 8 10 10 8 6 8 10 11 11 12 12 12 12 12 12 11 11 12 12 12 11 9 8 8 7 5 4 4 4 4 4 3 3 3
14 15 12 10 12 10 9 9 7 8 8 8 8 7 3 7 8 8 10 12 12 12 12 12 12 12 10 11 12 12 12 10 9 9 7 7 5 5 4 4 3 3 3 3
11 12 12 10 11 9 10 10 8 8 7 5 3 5 4 6 7 7 8 10 12 12 11 11 12 12 11 11 11 12 12 10 9 8 6 6 6 5 4 4 3 3 2 2
10 11 11 12 12 13 11 10 11 11 11 6 4 5 1 6 7 6 8 10 11 10 11 11 11 12 12 12 12 12 12 11 10 9 7 6 5 4 4 4 3 2 2 2
12 10 10 10 11 13 13 10 7 7 7 8 5 5 4 6 6 6 6 9 11 10 10 10 10 10 11 11 11 11 11 10 9 9 8 7 6 4 3 3 2 2 1 1
16 12 10 11 12 11 12 13 9 8 8 8 6 3 1 5 6 6 6 8 9 9 9 8 8 9 11 12 12 11 10 9 9 8 7 6 6 6 5 4 3 2 2 2
12 11 11 11 11 12 12 12 11 9 9 9 8 4 1 2 6 6 6 6 8 7 6 6 8 8 8 10 11 11 10 10 8 8 7 6 6 6 6 5 4 3 3 2
8 10 11 11 9 10 11 12 12 11 9 9 8 3 1 4 6 6 6 7 7 8 6 6 6 7 6 7 8 9 10 10 9 9 8 7 6 6 5 5 4 4 3 3
7 12 13 12 10 10 13 14 13 12 10 10 9 4 2 0 3 6 6 7 7 5 5 5 5 5 5 5 6 6 7 8 9 9 8 7 6 5 5 4 4 4 4 3
10 14 15 15 13 12 12 14 14 14 12 11 7 6 5 2 4 6 6 6 6 5 5 5 5 5 5 5 5 5 5 5 6 7 8 7 6 5 5 5 4 4 4 4
11 12 14 16 15 14 15 15 14 13 11 11 8 4 3 2 3 4 5 6 5 5 6 6 6 6 6 5 5 5 4 4 5 5 6 6 6 6 5 5 5 4 3 3
11 11 13 14 14 14 16 13 12 10 9 7 6 3 2 2 3 2 2 3 4 4 5 6 7 7 7 6 5 5 5 5 5 5 5 5 5 5 5 5 4 4 4 3
12 11 10 12 13 15 11 9 10 9 6 5 4 2 2 2 4 3 2 2 2 3 5 5 6 7 7 7 6 5 6 5 5 5 5 4 4 4 4 3 3 4 3 3
10 8 10 11 13 12 9 8 7 7 5 5 4 2 0 2 2 3 3 3 2 1 2 4 5 7 7 7 7 6 6 5 5 5 5 5 4 4 4 4 4 3 3 3
11 9 11 11 12 12 9 6 5 6 5 1 0 0 1 0 2 0 2 3 2 2 2 2 3 4 5 6 6 6 6 5 5 4 4 4 4 4 4 4 3 3 3 3
11 12 13 13 12 9 5 3 3 6 2 2 3 2 2 1 1 3 3 3 2 3 3 2 2 3 3 5 5 6 5 5 4 3 3 3 3 4 4 4 4 4 4 4
10 10 11 11 12 8 2 3 2 1 3 3 3 3 3 3 4 4 3 3 2 3 3 3 3 3 3 3 4 5 4 3 3 3 3 3 3 4 4 3 3 4 5 5
9 6 6 6 4 3 6 5 4 4 3 2 2 3 3 4 4 4 3 3 3 3 3 3 3 3 3 3 3 3 3 3 3 3 3 3 3 2 2 3 4 4 4 4
7 4 5 5 3 2 2 4 4 4 2 2 3 3 2 3 3 3 3 3 3 3 2 2 2 2 2 2 2 2 3 3 3 3 2 2 3 3 2 2 3 3 2 2
7 5 5 5 2 1 2 1 2 3 3 4 3 3 3 3 3 2 2 2 2 2 1 2 2 2 2 2 1 2 2 3 3 3 2 3 3 2 2 2 1 2 1 2
6 7 5 4 2 2 1 1 2 2 2 2 3 3 3 2 2 2 2 1 1 1 1 2 2 1 1 2 1 2 2 2 3 4 3 3 3 3 3 3 1 3 1 2
Wind_Direction
232 236 240 236 231 241 247 257 241 240 226 221 195 178 186 178 178 165 165 164 162 161 159 151 152 150 147 146 149 154 155 154 152 154 162 156 153 156 153 153 135 134 140 143
240 238 241 245 248 253 259 272 258 241 237 242 217 202 196 194 188 173 173 172 170 166 158 154 158 158 156 155 156 161 165 162 159 160 164 159 158 162 163 144 127 144 154 163
239 241 237 245 249 264 266 262 261 262 266 259 239 228 204 198 194 180 175 174 169 167 163 162 166 164 161 161 164 165 161 166 167 165 166 159 151 162 148 144 141 161 160 160
242 249 247 247 247 243 254 258 267 273 267 258 242 242 218 211 192 191 187 172 168 169 165 165 168 169 168 166 163 158 160 165 168 171 173 173 166 166 169 160 157 174 173 179
244 244 246 250 253 250 260 272 276 279 274 272 266 256 223 204 205 196 190 175 171 171 165 167 170 169 169 166 162 159 158 163 166 172 176 182 170 171 156 154 162 177 175 175
248 244 240 243 252 256 263 272 275 270 264 257 256 257 220 199 199 199 184 168 166 164 161 163 163 161 167 165 162 159 159 164 169 175 179 177 179 177 158 169 175 191 185 170
247 246 241 239 248 242 248 253 254 252 239 240 250 248 216 187 181 187 165 161 158 159 160 162 160 164 170 168 163 159 160 165 172 176 179 173 183 185 176 181 190 204 192 176
239 247 238 235 245 245 238 242 249 266 271 275 281 257 221 166 158 155 154 156 154 157 160 162 162 163 167 168 161 158 158 162 168 170 175 177 189 192 188 201 205 199 200 170
234 241 233 230 232 244 236 240 251 264 275 279 247 254 222 147 141 146 152 150 148 152 154 162 165 165 166 165 163 161 156 162 168 170 170 176 182 186 191 194 202 195 195 189
248 251 235 229 236 239 246 250 258 269 278 276 262 247 225 178 151 144 155 152 145 147 153 159 162 159 160 162 160 154 155 163 168 170 177 178 173 181 193 202 182 196 178 186
250 253 243 226 223 232 229 245 251 264 272 279 274 266 237 162 160 152 152 140 142 154 154 153 153 154 157 157 158 159 159 163 171 172 171 166 174 181 180 183 180 178 189 181
239 254 254 243 235 234 238 240 240 245 259 271 277 284 305 128 118 117 117 118 131 129 129 135 140 142 149 156 158 159 162 166 173 170 166 171 173 176 180 179 176 181 188 193
245 249 252 250 240 227 237 244 247 251 260 268 273 249 3 67 94 102 110 113 116 118 128 129 131 135 141 147 152 158 166 167 172 171 169 172 183 181 183 176 174 177 182 190
239 249 252 250 247 240 235 238 240 249 254 260 260 233 201 13 114 108 107 114 115 118 128 131 120 118 124 127 135 147 159 162 165 166 170 178 187 178 178 173 174 179 184 192
235 250 256 259 260 262 258 253 245 241 248 257 249 229 206 203 138 127 133 128 129 143 151 143 136 133 131 131 134 140 151 151 157 162 169 178 178 173 175 175 176 181 193 200
239 251 257 258 256 260 264 261 255 251 251 251 254 256 147 139 112 117 134 137 147 169 170 162 155 146 144 145 147 152 154 149 151 157 164 167 173 174 180 179 178 182 196 198
235 245 256 259 255 254 252 258 259 253 261 256 252 236 198 142 104 130 127 135 166 178 175 169 163 155 152 154 157 162 155 153 156 160 161 166 171 171 176 183 176 181 195 202
238 245 249 258 262 254 250 255 250 250 252 260 258 212 171 120 112 85 97 131 155 179 178 167 166 163 164 163 161 161 160 161 167 165 165 165 174 176 176 181 192 194 196 205
241 233 247 254 254 252 257 263 258 252 247 252 247 247 185 94 77 59 54 72 61 51 158 161 173 172 165 164 160 162 164 167 169 171 176 176 181 188 191 197 204 198 195 209
234 231 239 247 254 253 259 261 265 261 236 289 102 20 356 52 252 346 66 72 51 80 105 139 150 152 153 154 159 165 170 173 182 187 185 184 186 196 201 196 194 197 200 206
229 226 233 240 246 251 264 258 259 249 260 58 88 64 44 71 33 62 56 57 61 100 101 105 112 138 148 152 161 168 168 182 182 172 178 184 188 200 200 197 199 207 208 209
239 234 234 240 243 247 284 244 223 115 76 59 58 51 56 74 86 91 74 63 59 75 87 83 78 84 117 142 156 164 166 169 162 170 179 186 198 221 207 193 206 217 213 216
245 244 244 244 237 69 48 60 76 92 74 43 49 42 64 83 98 93 75 69 64 63 66 81 86 91 100 118 135 157 151 148 157 173 189 197 203 213 196 198 216 225 220 225
255 259 251 251 205 160 90 71 66 91 87 42 45 46 57 85 93 89 81 70 73 70 60 76 101 115 103 101 118 127 136 148 161 176 193 198 206 205 189 219 239 239 232 225
299 285 250 238 203 149 105 55 59 57 41 36 31 35 41 38 57 74 86 76 74 101 70 92 110 115 116 114 142 139 129 144 171 181 202 217 225 206 193 211 262 250 220 216
278 281 275 255 245 260 193 9 7 15 17 11 9 28 24 18 32 53 79 98 115 123 102 103 118 129 158 156 129 121 142 156 191 201 213 227 223 207 208 199 203 25 45 144
Height
1472 1475 1475 1471 1466 1466 1465 1467 1470 1464 1455 1457 1462 1466 1465 1467 1470 1474 1479 1483 1487 1491 1496 1499 1502 1505 1507 1509 1511 1513 1515 1516 1519 1520 1522 1523 1525 1527 1528 1528 1529 1530 1530 1531
1471 1473 1464 1461 1459 1460 1462 1466 1467 1459 1452 1456 1463 1465 1462 1464 1467 1471 1475 1480 1484 1489 1493 1497 1501 1503 1505 1507 1509 1511 1513 1515 1517 1519 1521 1523 1524 1526 1527 1528 1528 1529 1530 1530
1471 1463 1458 1458 1460 1463 1463 1466 1463 1460 1456 1456 1463 1470 1465 1461 1465 1469 1472 1476 1480 1485 1490 1495 1498 1501 1503 1506 1508 1510 1512 1514 1516 1518 1520 1522 1524 1525 1527 1527 1528 1528 1529 1530
1463 1456 1456 1458 1459 1461 1467 1455 1455 1457 1466 1470 1467 1487 1472 1463 1463 1466 1469 1473 1477 1483 1487 1491 1496 1499 1501 1504 1506 1508 1510 1513 1515 1517 1519 1521 1522 1524 1525 1526 1527 1528 1528 1529
1461 1455 1456 1459 1456 1455 1457 1450 1453 1457 1465 1472 1467 1479 1476 1463 1466 1463 1464 1469 1474 1479 1484 1489 1493 1496 1499 1502 1504 1506 1508 1511 1513 1515 1518 1520 1521 1523 1524 1525 1526 1527 1528 1528
1454 1450 1450 1452 1451 1451 1451 1453 1456 1460 1468 1486 1473 1477 1478 1461 1461 1458 1459 1464 1470 1476 1481 1486 1490 1494 1497 1500 1502 1504 1507 1509 1512 1514 1516 1518 1520 1522 1523 1524 1526 1527 1527 1527
1459 1451 1447 1448 1453 1451 1453 1465 1481 1486 1488 1485 1464 1468 1467 1450 1450 1452 1455 1461 1468 1474 1478 1483 1487 1491 1495 1498 1500 1502 1504 1507 1510 1512 1514 1517 1519 1520 1522 1523 1524 1525 1526 1526
1469 1467 1451 1448 1452 1455 1455 1461 1483 1495 1491 1480 1469 1473 1457 1445 1447 1450 1455 1459 1466 1471 1476 1481 1485 1488 1492 1495 1498 1500 1503 1505 1508 1510 1512 1515 1517 1518 1520 1521 1523 1524 1524 1525
1462 1464 1446 1445 1445 1449 1456 1458 1455 1467 1472 1483 1479 1469 1455 1446 1448 1451 1455 1459 1465 1470 1474 1479 1482 1486 1490 1493 1496 1498 1501 1504 1506 1508 1511 1513 1515 1517 1518 1520 1521 1522 1523 1523
1447 1459 1446 1444 1445 1445 1447 1450 1458 1469 1486 1492 1484 1476 1468 1455 1451 1451 1455 1458 1464 1470 1474 1477 1481 1485 1488 1491 1494 1497 1499 1502 1505 1507 1509 1511 1513 1515 1516 1518 1519 1520 1520 1521
1441 1452 1450 1446 1451 1453 1452 1453 1456 1461 1465 1482 1491 1480 1452 1451 1449 1451 1454 1458 1463 1468 1473 1477 1481 1484 1487 1490 1493 1495 1498 1501 1503 1506 1508 1510 1511 1513 1514 1515 1517 1517 1518 1519
1439 1446 1453 1447 1439 1439 1444 1448 1452 1469 1472 1466 1476 1477 1445 1445 1447 1451 1455 1460 1464 1468 1472 1476 1480 1483 1486 1488 1491 1494 1497 1499 1502 1504 1506 1508 1509 1511 1512 1513 1514 1515 1516 1516
1440 1449 1463 1460 1451 1444 1445 1444 1445 1451 1458 1465 1474 1475 1449 1448 1450 1454 1458 1462 1466 1469 1473 1476 1480 1483 1485 1487 1490 1492 1495 1497 1499 1501 1504 1506 1507 1508 1510 1511 1512 1513 1514 1514
1441 1446 1455 1465 1457 1447 1448 1445 1443 1450 1460 1464 1463 1464 1456 1454 1454 1457 1461 1464 1468 1472 1474 1478 1480 1482 1484 1486 1488 1491 1494 1496 1498 1499 1502 1503 1505 1506 1507 1509 1510 1511 1511 1512
1439 1448 1447 1443 1439 1439 1441 1442 1441 1445 1448 1456 1456 1458 1456 1454 1454 1457 1462 1465 1469 1473 1475 1477 1480 1482 1483 1485 1487 1489 1492 1494 1496 1498 1500 1501 1502 1504 1505 1506 1507 1508 1509 1510
1438 1445 1446 1446 1440 1440 1442 1439 1437 1439 1440 1445 1447 1452 1448 1452 1454 1457 1461 1464 1468 1471 1474 1476 1479 1481 1483 1484 1486 1488 1490 1492 1494 1496 1498 1499 1500 1501 1502 1503 1504 1506 1507 1508
1438 1445 1451 1452 1443 1444 1451 1441 1438 1439 1438 1441 1450 1451 1449 1452 1456 1459 1462 1464 1466 1469 1472 1475 1477 1479 1481 1483 1484 1487 1489 1491 1492 1494 1495 1497 1498 1499 1500 1501 1502 1503 1504 1505
1438 1443 1447 1451 1452 1465 1446 1430 1432 1436 1438 1440 1443 1446 1448 1452 1455 1458 1461 1463 1466 1468 1471 1473 1475 1477 1479 1481 1483 1485 1487 1489 1490 1492 1493 1495 1496 1497 1498 1498 1499 1500 1501 1502
1433 1442 1449 1453 1458 1454 1440 1434 1434 1438 1443 1440 1443 1447 1449 1452 1455 1459 1461 1463 1466 1467 1469 1471 1473 1475 1477 1479 1481 1483 1485 1486 1488 1489 1490 1492 1493 1494 1495 1496 1497 1498 1498 1499
1433 1438 1449 1452 1460 1464 1449 1435 1434 1438 1448 1443 1444 1447 1450 1452 1458 1462 1462 1463 1465 1466 1468 1469 1471 1473 1474 1476 1478 1480 1482 1484 1485 1487 1488 1489 1490 1491 1492 1493 1494 1495 1495 1496
1439 1442 1446 1450 1456 1451 1438 1434 1437 1453 1454 1446 1446 1450 1452 1454 1459 1462 1462 1463 1465 1466 1468 1469 1470 1472 1473 1474 1476 1478 1479 1481 1483 1484 1485 1486 1487 1488 1489 1490 1491 1492 1492 1493
1440 1443 1446 1447 1455 1455 1438 1437 1443 1450 1448 1448 1450 1451 1453 1455 1458 1461 1462 1464 1465 1466 1467 1468 1469 1470 1472 1473 1474 1476 1477 1479 1480 1482 1483 1484 1484 1486 1487 1487 1488 1489 1490 1490
1435 1437 1439 1441 1447 1443 1441 1443 1446 1447 1449 1451 1451 1453 1454 1456 1459 1461 1463 1464 1465 1466 1467 1468 1469 1469 1470 1471 1473 1474 1475 1476 1478 1479 1480 1481 1482 1483 1484 1485 1485 1486 1487 1487
1435 1435 1438 1442 1441 1442 1444 1447 1448 1449 1451 1452 1453 1454 1455 1457 1459 1461 1463 1464 1465 1466 1467 1468 1468 1468 1469 1470 1471 1472 1473 1474 1476 1477 1478 1479 1480 1481 1482 1482 1483 1484 1484 1485
1439 1438 1440 1441 1441 1444 1446 1448 1449 1450 1451 1453 1454 1455 1456 1457 1459 1460 1462 1463 1465 1466 1466 1467 1467 1467 1468 1469 1470 1471 1472 1473 1474 1475 1476 1477 1478 1478 1479 1480 1480 1480 1481 1482
1441 1443 1442 1442 1443 1445 1446 1449 1450 1451 1452 1454 1454 1455 1457 1458 1459 1460 1461 1462 1463 1464 1465 1465 1466 1466 1467 1468 1468 1469 1469 1470 1471 1472 1473 1474 1475 1476 1476 1477 1477 1477 1478 1478